Location: Croix-Chapeau
(46.1103°N, 1.0107°W)
Time: 23:18:30
(UTC+00:00)

Daily predictions for brighter satellites

Satellite Brightness Start Highest point End
(mag) Time Altitude Azimuth Time Altitude Azimuth Time Altitude Azimuth
BREEZE-M DEB (TANK) 4.4 16:31:51 10° W 16:35:58 71° N 16:51:20 10° E
Cosmos 1302 Rocket 4.0 16:42:18 10° NNW 16:47:33 63° ENE 16:52:45 10° SSE
Cosmos 371 Rocket 3.9 16:43:20 10° NNW 16:48:12 64° WSW 16:53:01 10° S
Cosmos 1340 2.6 16:47:02 10° N 16:50:51 84° E 16:54:37 10° SSE
Feng Yun 1-1 Rocket 4.5 16:45:58 10° SE 16:51:03 45° ENE 16:56:10 10° N
Cosmos 1500 4.2 16:47:56 10° NNE 16:51:05 24° ENE 16:54:11 10° SE
ERBS 2.7 16:48:57 10° NW 16:52:16 69° SW 16:55:35 10° SE
STARLINK-46 3.1 16:49:58 10° SW 16:52:32 44° SE 16:55:05 10° ENE
Cosmos 1602 3.8 16:50:07 10° N 16:54:00 88° W 16:57:54 10° S
COSMO-SKYMED 1 4.4 16:54:29 10° ENE 16:56:15 12° E 16:58:01 10° ESE
Cosmos 2251 Rocket 4.4 16:52:55 10° SSE 16:57:31 31° E 17:02:07 10° NE
Cosmos 1689 Rocket 2.8 16:55:17 10° N 16:58:17 57° WNW 17:01:16 10° SSW
YAOGAN 6 4.4 16:57:37 10° E 16:59:10 12° ENE 17:00:44 10° NE
Cosmos 1536 4.0 16:56:58 10° NNE 17:00:07 21° ENE 17:03:14 10° ESE
H-2A R/B 3.1 16:58:29 10° SE 17:01:55 38° ENE 17:05:22 10° N
CENTAUR R/B 3.9 16:55:01 10° NW 17:02:57 60° WSW 17:11:27 10° SSE
IRS-1C Rocket 4.1 16:58:17 10° SSE 17:03:28 60° ENE 17:08:39 10° N
YAOGAN 1 4.3 17:03:52 10° E 17:05:53 13° ENE 17:07:53 10° NNE
USA 215 3.5 17:00:16 10° NE 17:06:46 69° NNW 17:13:14 10° WSW
COSMOS 2428 2.7 17:03:30 10° SSW 17:09:09 75° ESE 17:14:51 10° NNE
CZ-4 R/B 2.9 17:08:51 10° E 17:11:09 15° ENE 17:13:28 10° NNE
PSLV R/B 3.9 17:08:00 10° NNE 17:12:11 73° ESE 17:16:18 10° S
Lacrosse 5 rocket 1.7 17:08:55 10° SSW 17:13:08 52° SE 17:16:37 13° ENE
Meteor 1-5 Rocket 4.1 17:08:01 10° N 17:13:35 64° ENE 17:18:56 10° SSE
Envisat 3.4 17:13:16 10° SE 17:17:57 39° ENE 17:22:40 10° N
Cosmos 1733 Rocket 3.0 17:14:29 10° N 17:18:50 61° E 17:23:10 10° SSE
SL-4 R/B 1.9 17:18:18 10° WSW 17:22:00 72° NNW 17:25:06 16° ENE
ISS -3.8 17:24:45 10° WNW 17:28:07 76° NNE 17:31:05 13° ESE
Cosmos 1992 Rocket 4.0 17:26:51 10° NNW 17:32:03 60° ENE 17:37:11 10° SE
Cosmos 1666 3.3 17:32:24 10° N 17:35:47 31° ENE 17:39:09 10° SE
Cosmos 1315 Rocket 4.4 17:33:33 10° SW 17:37:13 35° WNW 17:40:57 10° N
Cosmos 1900 4.4 17:32:35 10° NNW 17:37:24 53° NE 17:42:10 10° SE
CZ-4B R/B 4.4 17:36:14 10° NNW 17:38:00 13° WNW 17:39:45 10° W
Cosmos 2278 Rocket 2.1 17:35:28 10° NNW 17:41:11 84° ENE 17:46:50 10° SSE
USA 267 3.9 17:34:57 10° SE 17:41:22 58° SW 17:47:49 10° WNW
COBE Rocket 3.7 17:37:48 10° NNE 17:42:28 89° E 17:47:09 10° SSW
SMAP 3.4 17:38:26 10° S 17:43:04 68° WSW 17:47:43 10° NNW
ATLAS 3B R/B 4.2 17:37:34 10° NW 17:43:44 39° WSW 17:50:01 10° S
SKYMED 2 4.1 17:41:52 16° NE 17:44:50 36° E 17:48:50 10° SSE
NOSS 3-4 (A) 4.3 17:40:56 10° WSW 17:46:41 44° NW 17:52:28 12° NNE
NOSS 3-4 (C) 4.3 17:41:01 10° WSW 17:46:47 44° NW 17:52:34 12° NNE
Cosmos 2360 Rocket 4.1 17:42:23 10° WSW 17:46:58 25° NW 17:51:35 10° N
Cosmos 1782 Rocket 4.3 17:43:32 10° NNE 17:47:20 28° ENE 17:51:05 10° SE
NOSS 0 Rocket 3.9 17:41:56 10° SSW 17:48:07 76° ESE 17:53:49 13° NNE
Cosmos 921 Rocket 3.9 17:46:08 10° N 17:49:41 26° ENE 17:49:41 26° ENE
Okean O Rocket 4.5 17:48:59 10° SW 17:52:07 19° W 17:55:17 10° NW
Cosmos 2369 Rocket 3.8 17:51:45 10° N 17:54:27 15° NNE 17:54:27 15° NNE
SL-16 R/B 3.1 17:51:06 10° SSE 17:55:49 28° ESE 17:57:01 25° E
Cosmos 1862 Rocket 3.7 17:51:46 10° SSW 17:56:06 73° W 18:00:30 10° N
Cosmos 1092 Rocket 4.0 17:50:52 10° S 17:57:03 61° E 18:03:13 10° NNE
Cosmos 2242 Rocket 3.5 17:53:41 10° S 17:58:14 75° E 18:02:49 10° NNE
Cosmos 1703 Rocket 3.9 17:54:36 10° SSE 17:58:50 44° E 18:01:05 24° NE
Cosmos 2333 Rocket 3.2 17:55:23 10° SW 18:00:53 46° NW 18:06:27 10° NNE
Okean-O 2.9 18:01:53 10° S 18:06:17 68° WSW 18:10:43 10° NNW
Cosmos 1812 3.7 18:03:05 10° SSW 18:06:50 48° WNW 18:10:36 10° N
Cosmos 2237 Rocket 2.1 18:01:52 10° SSW 18:07:35 85° ESE 18:11:47 19° NNE
Cosmos 292 Rocket 3.7 18:03:20 10° NNW 18:08:13 69° ENE 18:13:02 10° SSE
BREEZE-M R/B 3.0 18:03:52 10° W 18:08:56 49° N 18:09:34 42° NNE
Cosmos 546 4.5 18:07:42 10° WNW 18:11:33 86° NNE 18:12:30 50° ESE
FALCON 9 DEB 4.1 18:09:39 10° SSW 18:12:37 33° SSE 18:12:37 33° SSE
RESURS DK-1 3.8 18:09:09 10° WSW 18:12:55 33° NW 18:15:52 15° N
Meteor 1-27 Rocket 4.2 18:08:38 10° SSW 18:14:18 65° WNW 18:20:09 10° N
Cosmos 2219 Rocket 3.7 18:18:36 10° WSW 18:23:37 33° NW 18:28:41 10° NNE
Shenzhou-11 Module 3.3 18:21:05 10° WSW 18:23:06 32° SW 18:23:06 32° SW
ATLAS 2AS CENTAUR R/B 4.3 18:18:15 10° W 18:25:18 32° NNW 18:30:48 15° NNE
SeaSat 1 4.0 18:28:08 21° NNE 18:28:08 21° NNE 18:30:20 10° N
S3M 4.4 18:21:53 10° N 18:27:12 39° ENE 18:27:12 39° ENE
Cosmos 1908 Rocket 4.1 18:26:36 10° NNW 18:30:57 58° W 18:35:14 10° S
YAOGAN 6 3.3 18:28:47 10° S 18:32:13 51° W 18:35:44 10° NNW
COSMO-SKYMED 1 2.7 18:30:24 25° N 18:32:55 72° WNW 18:37:13 10° SSW
Cosmos 1980 4.3 18:32:43 10° SW 18:38:14 55° WNW 18:41:51 22° NNE
Meteor 1-18 Rocket 4.1 18:33:37 10° S 18:39:16 62° E 18:40:29 50° NE
USA 116 4.3 18:37:20 27° NNE 18:40:20 86° ESE 18:45:30 10° SSW
Cosmos 1441 Rocket 3.4 18:36:50 10° NNW 18:40:40 68° W 18:44:24 10° S
Cosmos 1943 Rocket 3.4 18:36:18 10° NNW 18:39:24 26° NNE 18:39:24 26° NNE
YAOGAN 1 2.6 18:37:04 10° S 18:41:22 77° WSW 18:45:44 10° NNW
Cosmos 1428 Rocket 4.3 18:35:52 10° S 18:42:02 82° E 18:48:18 10° N
Cosmos 1553 Rocket 3.9 18:35:46 10° N 18:42:06 65° ENE 18:48:27 10° SSE
Cosmos 2297 3.5 18:37:02 10° NNW 18:42:47 82° ENE 18:45:24 34° SSE
CSL-04 Rocket 3.6 18:40:06 10° S 18:45:23 78° WSW 18:50:42 10° NNW
CZ-4 R/B 2.1 18:42:00 10° S 18:45:49 49° W 18:49:36 10° NNW
USA 215 4.1 18:46:59 30° NNE 18:49:11 37° NNW 18:55:05 10° WNW
Lacrosse 5 rocket 2.6 18:48:36 10° W 18:52:16 33° NNW 18:52:16 33° NNW
Okean 1-7 3.6 18:51:06 10° SSW 18:55:22 56° WNW 18:56:06 49° NW
Cosmos 614 Rocket 3.9 18:52:59 10° SSW 18:57:41 77° S 18:57:41 77° S
Cosmos 2026 Rocket 4.2 18:53:05 10° SSW 18:59:05 67° W 19:05:09 10° N
SL-4 R/B 3.6 18:58:24 10° WNW 19:00:43 28° NW 19:00:43 28° NW
Cosmos 489 Rocket 4.3 18:56:23 10° NNW 19:02:46 72° ENE 19:02:47 72° ENE
ISS -1.1 19:02:03 10° W 19:04:01 19° SW 19:04:01 19° SW
Cosmos 407 Rocket 3.6 19:03:15 10° SSW 19:07:53 70° SW 19:07:53 70° SW
Cosmos 1867 4.3 19:06:56 10° NNW 19:10:44 44° NNW 19:10:44 44° NNW
Cosmos 1417 Rocket 4.4 19:06:51 10° N 19:12:59 80° W 19:19:07 10° S
Cosmos 1655 Rocket 4.1 19:15:38 10° S 19:20:56 65° S 19:20:56 65° S
NOSS 3-1 (C) 4.4 19:21:04 10° NNW 19:26:44 45° N 19:26:44 45° N
USA 229 DEB 4.5 19:28:44 10° NW 19:33:49 43° N 19:33:49 43° N
USA 229 4.5 19:28:50 10° NW 19:33:54 43° N 19:33:54 43° N
SL-16 R/B 3.0 19:34:07 10° SW 19:38:57 48° W 19:38:57 48° W
Cosmos 2369 Rocket 4.1 19:34:31 10° NNW 19:36:16 21° NNW 19:36:16 21° NNW
Cosmos 2237 Rocket 4.3 19:48:15 10° W 19:52:24 20° NW 19:53:38 19° NNW
Cosmos 2344 4.3 19:50:22 10° NW 19:59:36 71° NE 19:59:36 71° NE
Centaur D-1A AC-31 4.5 20:02:08 10° SW 20:42:18 - ESE 20:05:51 22° S
